Weather History for Karup, Denmark

Change the Weather History Date:

Saturday, December 22, 2012

  Actual Average Record
Temperature  
Mean Temperature 32 °F -  
Max Temperature 33 °F 37 °F 48 °F (2006)
Min Temperature 31 °F 29 °F 5 °F (2010)
Degree Days  
Heating Degree Days 33    
Moisture  
Dew Point 27 °F    
Average Humidity 80    
Maximum Humidity 87    
Minimum Humidity 65    
Precipitation  
Precipitation 0.00 in - - ()
Sea Level Pressure  
Sea Level Pressure 30.10 in    
Wind  
Wind Speed 13 mph ()    
Max Wind Speed 21 mph    
Max Gust Speed 33 mph    
Visibility 6.3 miles    
Events Rain , Snow    
Averages and records for this station are not official NWS values.
T = Trace of Precipitation, MM = Missing Value Source: Averaged Metar Reports

Daily Weather History Graph

Daily Weather History Graph

Search for Another Location

Airport:

Trip Planner

Search our weather history database for the weather conditions in past years. The results will help you decide how hot, cold, wet, or windy it might be!

Date:

Astronomy

Dec. 22, 2012 Rise Set
Actual Time 8:55 AM CET 3:48 PM CET
Civil Twilight 8:07 AM CET 4:36 PM CET
Nautical Twilight 7:18 AM CET 5:26 PM CET
Astronomical Twilight 6:32 AM CET 6:12 PM CET
Moon 12:35 PM CET (12/22) 2:43 AM CET (12/22)
Length of Visible Light 8h 29m
Length of Day
6h 52m
Waxing Gibbous, 71% of the Moon is Illuminated
Dec 22
Waxing Gibbous
Dec 28
Full
Jan 5
Last Quarter
Jan 11
New
Jan 19
First Quarter

Hourly Weather History & Observations

Time (CET) Temp. Windchill Dew Point Humidity Pressure Visibility Wind Dir Wind Speed Gust Speed Precip Events Conditions
12:20 AM 32.0 °F 23.0 °F 28.4 °F 87% 30.21 in 6.2 mi East 11.5 mph - N/A   Mostly Cloudy
12:50 AM 32.0 °F 22.5 °F 28.4 °F 87% 30.21 in 6.2 mi East 12.7 mph - N/A   Mostly Cloudy
1:00 AM 32 °F - 28 °F 79% 30.23 in 6 mi East 12.7 mph - -   Overcast
1:20 AM 32.0 °F 22.5 °F 28.4 °F 87% 30.21 in 6.2 mi ENE 12.7 mph - N/A   Mostly Cloudy
1:50 AM 32.0 °F 23.0 °F 28.4 °F 87% 30.21 in 6.2 mi East 11.5 mph - N/A   Mostly Cloudy
2:20 AM 32.0 °F 22.5 °F 28.4 °F 87% 30.21 in 6.2 mi East 12.7 mph - N/A   Mostly Cloudy
2:50 AM 32.0 °F 22.1 °F 26.6 °F 80% 30.21 in 6.2 mi East 13.8 mph - N/A   Mostly Cloudy
3:20 AM 32.0 °F 22.1 °F 26.6 °F 80% 30.21 in 6.2 mi East 13.8 mph - N/A   Mostly Cloudy
3:50 AM 32.0 °F 21.2 °F 26.6 °F 80% 30.21 in 6.2 mi East 16.1 mph - N/A   Mostly Cloudy
4:00 AM 32 °F - 27 °F 76% 30.22 in 7 mi East 17.3 mph - -   Overcast
4:20 AM 32.0 °F 22.1 °F 28.4 °F 87% 30.18 in 6.2 mi East 13.8 mph - N/A   Mostly Cloudy
4:50 AM 32.0 °F 22.1 °F 28.4 °F 87% 30.18 in 6.2 mi East 13.8 mph - N/A   Mostly Cloudy
5:20 AM 32.0 °F 21.2 °F 28.4 °F 87% 30.18 in 6.2 mi East 16.1 mph - N/A   Mostly Cloudy
5:50 AM 32.0 °F 22.1 °F 28.4 °F 87% 30.18 in 6.2 mi East 13.8 mph - N/A   Mostly Cloudy
6:21 AM 32.0 °F 22.5 °F 26.6 °F 80% 30.18 in 6.2 mi East 12.7 mph - N/A   Mostly Cloudy
6:50 AM 32.0 °F 22.1 °F 26.6 °F 80% 30.18 in 6.2 mi East 13.8 mph - N/A   Mostly Cloudy
7:00 AM - - - %  in - Calm Calm - -  
7:20 AM 32.0 °F 22.5 °F 26.6 °F 80% 30.18 in 6.2 mi East 12.7 mph - N/A   Mostly Cloudy
7:51 AM 32.0 °F 23.0 °F 26.6 °F 80% 30.18 in 6.2 mi East 11.5 mph - N/A   Mostly Cloudy
8:21 AM 32.0 °F 22.5 °F 26.6 °F 80% 30.18 in 6.2 mi East 12.7 mph - N/A   Mostly Cloudy
8:51 AM 32.0 °F 22.5 °F 26.6 °F 80% 30.18 in 6.2 mi East 12.7 mph - N/A   Mostly Cloudy
9:20 AM 32.0 °F 22.1 °F 26.6 °F 80% 30.18 in 6.2 mi East 13.8 mph - N/A   Mostly Cloudy
9:50 AM 32.0 °F 22.5 °F 28.4 °F 87% 30.18 in 6.2 mi East 12.7 mph - N/A   Mostly Cloudy
10:00 AM 31 °F - 28 °F 81% 30.20 in 7 mi East 12.7 mph - -   Mostly Cloudy
10:20 AM 32.0 °F 22.5 °F 26.6 °F 80% 30.15 in 6.2 mi East 12.7 mph - N/A   Mostly Cloudy
10:50 AM 32.0 °F 22.1 °F 28.4 °F 87% 30.15 in 6.2 mi East 13.8 mph - N/A   Mostly Cloudy
11:20 AM 32.0 °F 21.6 °F 28.4 °F 87% 30.15 in 6.2 mi East 15.0 mph - N/A   Mostly Cloudy
11:50 AM 32.0 °F 22.1 °F 28.4 °F 87% 30.12 in 6.2 mi East 13.8 mph - N/A   Mostly Cloudy
12:20 PM 32.0 °F 21.6 °F 28.4 °F 87% 30.12 in 6.2 mi East 15.0 mph - N/A Snow Light Snow
12:50 PM 32.0 °F 22.1 °F 28.4 °F 87% 30.12 in 6.2 mi East 13.8 mph - N/A Snow Light Snow
1:00 PM 32 °F - 29 °F 83% 30.13 in 7 mi East 10.4 mph - - Snow Light Snow
1:20 PM 32.0 °F 23.6 °F 28.4 °F 87% 30.09 in 6.2 mi East 10.4 mph - N/A   Mostly Cloudy
1:50 PM 33.8 °F 24.8 °F 28.4 °F 81% 30.09 in 6.2 mi East 12.7 mph - N/A   Mostly Cloudy
2:20 PM 33.8 °F 23.9 °F 26.6 °F 75% 30.09 in 6.2 mi East 15.0 mph - N/A   Mostly Cloudy
2:50 PM 33.8 °F 23.5 °F 26.6 °F 75% 30.06 in 6.2 mi East 16.1 mph 29.9 mph N/A   Mostly Cloudy
3:20 PM 33.8 °F 23.5 °F 26.6 °F 75% 30.06 in 6.2 mi East 16.1 mph - N/A   Mostly Cloudy
3:50 PM 33.8 °F 23.5 °F 26.6 °F 75% 30.06 in 6.2 mi East 16.1 mph - N/A   Mostly Cloudy
4:00 PM 33 °F - 27 °F 70% 30.07 in 12 mi East 16.1 mph - -   Overcast
4:20 PM 33.8 °F 23.9 °F 26.6 °F 75% 30.04 in 6.2 mi East 15.0 mph - N/A   Mostly Cloudy
4:50 PM 33.8 °F 23.5 °F 26.6 °F 75% 30.04 in 6.2 mi East 16.1 mph - N/A   Mostly Cloudy
5:20 PM 33.8 °F 23.9 °F 26.6 °F 75% 30.04 in 6.2 mi East 15.0 mph - N/A   Mostly Cloudy
5:50 PM 33.8 °F 22.8 °F 24.8 °F 70% 30.01 in 6.2 mi East 18.4 mph 31.1 mph N/A   Mostly Cloudy
6:20 PM 33.8 °F 23.2 °F 24.8 °F 70% 30.01 in 6.2 mi East 17.3 mph 31.1 mph N/A   Mostly Cloudy
6:50 PM 33.8 °F 22.8 °F 24.8 °F 70% 30.01 in 6.2 mi East 18.4 mph 29.9 mph N/A   Mostly Cloudy
7:00 PM 33 °F - 26 °F 65% 30.02 in 12 mi East 17.3 mph - -   Overcast
7:20 PM 33.8 °F 22.8 °F 24.8 °F 70% 30.01 in 6.2 mi East 18.4 mph - N/A   Mostly Cloudy
7:50 PM 32.0 °F 20.5 °F 24.8 °F 75% 30.01 in 6.2 mi East 18.4 mph - N/A   Mostly Cloudy
8:20 PM 32.0 °F 19.8 °F 24.8 °F 75% 29.98 in 6.2 mi East 20.7 mph 33.4 mph N/A   Mostly Cloudy
8:50 PM 32.0 °F 20.1 °F 24.8 °F 75% 29.98 in 6.2 mi East 19.6 mph 31.1 mph N/A   Mostly Cloudy
9:20 PM 32.0 °F 19.8 °F 24.8 °F 75% 29.98 in 6.2 mi East 20.7 mph 33.4 mph N/A   Mostly Cloudy
9:50 PM 32.0 °F 20.5 °F 26.6 °F 80% 29.95 in 6.2 mi East 18.4 mph - N/A   Mostly Cloudy
10:00 PM 32 °F - 26 °F 71% 29.96 in 6 mi East 19.6 mph - -   Overcast
10:20 PM 32.0 °F 20.1 °F 26.6 °F 80% 29.95 in 6.2 mi ESE 19.6 mph 31.1 mph N/A   Mostly Cloudy
10:40 PM 32.0 °F 20.1 °F 26.6 °F 80% 29.95 in 6.2 mi East 19.6 mph - N/A   Mostly Cloudy
10:50 PM 32.0 °F 19.8 °F 28.4 °F 87% 29.92 in 5.0 mi ESE 20.7 mph 32.2 mph N/A Rain , Snow Light Rain
11:20 PM 32.0 °F 20.5 °F 28.4 °F 87% 29.92 in 4.3 mi East 18.4 mph 31.1 mph N/A Snow Light Snow
11:50 PM 32.0 °F 20.8 °F 28.4 °F 87% 29.92 in 3.1 mi East 17.3 mph - N/A Snow Light Snow